[[{"header":{"parameterUnit":"m.s-1","parameterCategory":2,"la1":30.2991,"la2":30.254,"lo1":-89.0895,"lo2":-89.0444,"dy":0.0017,"dx":0.0017,"nx":28,"ny":28,"refTime":"2025-12-06T09:00:00:Z","depth":"0","parameterNumber":2,"parameterNumberName":"U-component_of_CURRENTS"},"data":[0,0,0,0,0,0,0,0,0,0,0,0,0,0,0,0,0,0,0,0,0,0,0,0,0,0,0,0,0,0,0,0,0,0,0,0,0,0,0,0,0,0,0,0,0,0,0,0,0,0,0,0,0,0,0,0,0,0,-0.2505,-0.2506,0,-0.261,-0.2611,-0.2612,-0.2663,-0.2663,-0.2663,-0.2663,-0.2692,-0.2692,-0.2693,0,0,0,0,0,0,0,0,0,0,0,0,0,-0.2415,-0.2416,-0.2505,-0.2506,-0.2508,-0.2609,-0.2611,-0.2612,-0.2663,-0.2663,-0.2663,-0.2664,-0.2692,-0.2692,-0.2693,0,0,0,0,0,0,0,0,0,0,0,0,0,-0.2477,-0.2416,-0.2505,-0.2548,-0.2553,-0.2609,-0.2611,-0.2612,-0.2663,-0.2663,-0.2663,-0.2664,-0.2692,-0.2692,-0.2693,-0.269,0,0,-0.2696,-0.2696,0,0,0,0,0,0,0,0,-0.2474,-0.248,-0.254,-0.2545,-0.2551,-0.2626,-0.259,-0.2635,-0.2662,-0.2618,-0.2663,-0.2664,-0.2665,-0.2668,-0.2683,-0.2691,-0.2693,-0.2696,-0.2696,-0.2696,-0.2697,0,0,0,0,0,0,0,-0.2469,-0.2476,-0.2543,-0.2542,-0.2548,-0.2585,-0.2593,-0.2599,-0.2634,-0.2622,-0.2626,-0.2643,-0.2667,-0.2682,-0.2684,-0.2693,-0.2696,-0.2696,-0.2697,-0.2697,-0.2679,-0.2679,0,0,0,0,0,0,-0.2459,-0.2472,-0.254,-0.2547,-0.2516,-0.2586,-0.2595,-0.2599,-0.2636,-0.2643,-0.2642,-0.2645,-0.2681,-0.2683,-0.2685,-0.2675,-0.2696,-0.2697,-0.2698,-0.268,-0.2679,-0.2678,0,0,0,0,0,0,-0.2456,-0.2463,-0.2536,-0.2515,-0.2527,-0.2587,-0.2591,-0.2601,-0.2622,-0.2653,-0.2658,-0.2654,-0.2681,-0.2684,-0.2676,-0.2677,-0.2697,-0.2698,-0.2681,-0.268,-0.2679,-0.266,0,0,0,0,0,0,-0.2453,-0.2461,-0.2458,-0.2514,-0.2528,-0.2566,-0.2591,-0.2603,-0.2633,-0.2637,-0.2664,-0.2667,-0.2682,-0.2675,-0.2677,-0.2678,-0.2699,-0.2683,-0.2681,-0.2679,-0.2662,-0.2659,-0.2656,0,0,0,0,0,-0.2449,-0.2451,-0.2457,-0.2466,-0.2522,-0.2566,-0.2576,-0.2619,-0.2633,-0.2639,-0.2645,-0.2667,-0.2665,-0.2674,-0.2677,-0.2679,-0.2684,-0.2681,-0.2679,-0.2664,-0.2659,-0.2656,0,0,0,0,0,0,-0.2422,-0.2458,-0.2466,-0.2481,-0.2516,-0.2576,-0.2594,-0.2617,-0.2631,-0.2632,-0.2653,-0.2655,-0.2649,-0.2659,-0.2668,-0.2666,-0.2679,-0.2677,-0.2666,-0.2662,-0.2659,-0.2664,-0.2699,0,0,0,0,0,-0.241,-0.2416,-0.2459,-0.2473,-0.2488,-0.2537,-0.256,-0.2586,-0.2611,-0.262,-0.263,-0.2638,-0.2643,-0.2648,-0.265,-0.2648,-0.2653,-0.265,-0.2647,-0.2644,-0.2648,-0.2635,-0.2631,-0.2671,-0.2671,-0.2671,0,0,-0.2408,-0.2428,-0.2434,-0.2467,-0.2499,-0.251,-0.2551,-0.2586,-0.2592,-0.2617,-0.2613,-0.2623,-0.2637,-0.2634,-0.2633,-0.2644,-0.2635,-0.2641,-0.2639,-0.2645,-0.2632,-0.2629,-0.2625,-0.267,-0.267,-0.267,0,0,-0.2408,-0.2419,-0.2422,-0.2437,-0.2476,-0.2502,-0.2508,-0.2551,-0.2567,-0.2564,-0.2584,-0.2594,-0.2591,-0.2612,-0.2621,-0.2599,-0.2613,-0.2595,-0.2591,-0.2578,-0.2575,-0.2572,-0.2576,-0.2574,-0.2599,-0.2599,-0.2599,0,-0.2406,-0.2406,-0.2433,-0.2432,-0.2446,-0.2491,-0.2495,-0.2514,-0.2544,-0.2558,-0.2554,-0.257,-0.2586,-0.2603,-0.2596,-0.2596,-0.2587,-0.2609,-0.2574,-0.2572,-0.2569,-0.2574,-0.2572,-0.2598,-0.2598,-0.2598,-0.2598,0,-0.2408,-0.2395,-0.2402,-0.2404,-0.2419,-0.2435,-0.2461,-0.2472,-0.2489,-0.2511,-0.2524,-0.2539,-0.2559,-0.2561,-0.2573,-0.2572,-0.2571,-0.2568,-0.2588,-0.2565,-0.2571,-0.2569,-0.2596,-0.2596,-0.2597,-0.2597,0,0,-0.2437,-0.2407,-0.2408,-0.2385,-0.2404,-0.2416,-0.2425,-0.2456,-0.2472,-0.2481,-0.2499,-0.2513,-0.2537,-0.2548,-0.2569,-0.2561,-0.2544,-0.2554,-0.2554,-0.2565,-0.2516,-0.2509,-0.2507,-0.2524,-0.2524,-0.2523,-0.2529,0,-0.2435,-0.2402,-0.2403,-0.2375,-0.2356,-0.2385,-0.2393,-0.2421,-0.2447,-0.2467,-0.2499,-0.2515,-0.2528,-0.2542,-0.2537,-0.2544,-0.2537,-0.2543,-0.2532,-0.2532,-0.2534,-0.2504,-0.2366,-0.2358,-0.2527,-0.2527,-0.2527,0,-0.2437,-0.2407,-0.237,-0.2339,-0.2342,-0.2336,-0.2366,-0.2379,-0.2427,-0.245,-0.2479,-0.2506,-0.2527,-0.2523,-0.2526,-0.2523,-0.2518,-0.2514,-0.2514,-0.2514,-0.2521,-0.2407,-0.2348,-0.2202,-0.2524,-0.2524,-0.2524,0,-0.242,-0.2386,-0.2348,-0.2335,-0.2315,-0.2317,-0.2328,-0.2373,-0.2399,-0.2439,-0.2463,-0.249,-0.2507,-0.2496,-0.2513,-0.2509,-0.2498,-0.2498,-0.2488,-0.2489,-0.2375,-0.2366,-0.2179,-0.248,-0.248,-0.248,-0.248,0,-0.2401,-0.2367,-0.233,-0.2297,-0.2284,-0.2286,-0.2297,-0.2325,-0.2371,-0.2407,-0.245,-0.2477,-0.2493,-0.2505,-0.2503,-0.2496,-0.2495,-0.2484,-0.2483,-0.2365,-0.2356,-0.2229,-0.2241,-0.248,-0.248,-0.248,-0.248,0,-0.2368,-0.2343,-0.2294,-0.2265,-0.2259,-0.2249,-0.2268,-0.2289,-0.2335,-0.2381,-0.2396,-0.2458,-0.2468,-0.2489,-0.2481,-0.249,-0.2417,-0.2476,-0.2351,-0.2335,-0.2196,-0.2215,-0.2184,-0.213,-0.2464,-0.2464,-0.2464,0,-0.2342,-0.2303,-0.2264,-0.225,-0.223,-0.2218,-0.2227,-0.2264,-0.2298,-0.2373,-0.24,-0.2429,-0.2449,-0.2449,-0.2443,-0.2435,-0.2379,-0.2322,-0.2296,-0.216,-0.218,-0.2229,-0.2189,-0.2137,-0.2134,-0.2132,-0.213,0,-0.2286,-0.2276,-0.2242,-0.2215,-0.2203,-0.2199,-0.2213,-0.2236,-0.2301,-0.2337,-0.2383,-0.2393,-0.2397,-0.2331,-0.2335,-0.2307,-0.2218,-0.2278,-0.214,-0.1916,-0.1953,-0.1907,-0.2185,-0.2109,-0.2111,-0.2113,-0.2114,-0.2115,-0.2256,-0.2238,-0.2205,-0.2184,-0.218,-0.2191,-0.2182,-0.2221,-0.2256,-0.2321,-0.2349,-0.234,-0.224,-0.2217,-0.2141,-0.1933,-0.2109,-0.1861,-0.1901,-0.1966,-0.1887,-0.2144,-0.2072,-0.2073,-0.2075,-0.2076,-0.2078,0,-0.223,-0.2212,-0.218,-0.2159,-0.2152,-0.2157,-0.2183,-0.218,-0.2209,-0.225,-0.2273,-0.2191,-0.2025,-0.1875,-0.1686,-0.1564,-0.1522,-0.1491,-0.1451,-0.1434,-0.1611,-0.1559,-0.1366,-0.1366,-0.1366,-0.1367,-0.1367,-0.1367,-0.2215,-0.2182,-0.2165,-0.2134,-0.2125,-0.2104,-0.2111,-0.2109,-0.2117,-0.2099,-0.2078,-0.2089,-0.1861,-0.1637,-0.1285,-0.1198,-0.1118,-0.1148,-0.1191,-0.1202,-0.1236,-0.1268,-0.121,-0.0948,-0.0948,-0.0906,-0.0906,-0.0906]},{"header":{"parameterUnit":"m.s-1","parameterCategory":2,"la1":30.2991,"la2":30.254,"lo1":-89.0895,"lo2":-89.0444,"dy":0.0017,"dx":0.0017,"nx":28,"ny":28,"refTime":"2025-12-06T09:00:00:Z","depth":"0","parameterNumber":3,"parameterNumberName":"V-component_of_CURRENTS"},"data":[0,0,0,0,0,0,0,0,0,0,0,0,0,0,0,0,0,0,0,0,0,0,0,0,0,0,0,0,0,0,0,0,0,0,0,0,0,0,0,0,0,0,0,0,0,0,0,0,0,0,0,0,0,0,0,0,0,0,-0.1617,-0.1615,0,-0.1385,-0.1382,-0.1379,-0.1242,-0.1242,-0.1242,-0.1242,-0.0974,-0.0967,-0.096,0,0,0,0,0,0,0,0,0,0,0,0,0,-0.1839,-0.1836,-0.1618,-0.1615,-0.1612,-0.1385,-0.1382,-0.1378,-0.1242,-0.1242,-0.1242,-0.1242,-0.0976,-0.0968,-0.096,0,0,0,0,0,0,0,0,0,0,0,0,0,-0.1685,-0.1835,-0.1618,-0.152,-0.151,-0.1386,-0.1382,-0.1377,-0.1242,-0.1242,-0.1242,-0.1241,-0.0979,-0.0969,-0.0959,-0.09,0,0,-0.0927,-0.0922,0,0,0,0,0,0,0,0,-0.1694,-0.1677,-0.1537,-0.1527,-0.1515,-0.1346,-0.1362,-0.1217,-0.1242,-0.1339,-0.1242,-0.1241,-0.1098,-0.1078,-0.1029,-0.0887,-0.0876,-0.0926,-0.0919,-0.0915,-0.0912,0,0,0,0,0,0,0,-0.1705,-0.1685,-0.1521,-0.1535,-0.1521,-0.1453,-0.1431,-0.1333,-0.1219,-0.1331,-0.1321,-0.1302,-0.1091,-0.104,-0.1022,-0.0872,-0.0926,-0.0917,-0.091,-0.0906,-0.0654,-0.0654,0,0,0,0,0,0,-0.1747,-0.1696,-0.1529,-0.1515,-0.161,-0.145,-0.1425,-0.1397,-0.1221,-0.1195,-0.1303,-0.1297,-0.1058,-0.1034,-0.1012,-0.0944,-0.0915,-0.0905,-0.0899,-0.0655,-0.0654,-0.0654,0,0,0,0,0,0,-0.1753,-0.1734,-0.1538,-0.1604,-0.1575,-0.1448,-0.1416,-0.1393,-0.1343,-0.1201,-0.1173,-0.1279,-0.1056,-0.1027,-0.0911,-0.0932,-0.0901,-0.0891,-0.0655,-0.0655,-0.0654,-0.08,0,0,0,0,0,0,-0.176,-0.1738,-0.1725,-0.1607,-0.1573,-0.1473,-0.1416,-0.1388,-0.1334,-0.1324,-0.1171,-0.1146,-0.1054,-0.0927,-0.0901,-0.0917,-0.0883,-0.0656,-0.0655,-0.0654,-0.0796,-0.0805,-0.0812,0,0,0,0,0,-0.1769,-0.175,-0.1726,-0.1706,-0.1562,-0.1474,-0.145,-0.1355,-0.1334,-0.1311,-0.1198,-0.1151,-0.0904,-0.0917,-0.0886,-0.0901,-0.0656,-0.0655,-0.0654,-0.0793,-0.0803,-0.0812,0,0,0,0,0,0,-0.1832,-0.1732,-0.1703,-0.1653,-0.1579,-0.1453,-0.142,-0.1368,-0.1261,-0.1247,-0.1125,-0.109,-0.1003,-0.0923,-0.0941,-0.0825,-0.078,-0.0773,-0.0896,-0.0905,-0.0913,-0.0944,-0.0874,0,0,0,0,0,-0.1848,-0.1812,-0.1712,-0.1676,-0.1646,-0.1542,-0.1494,-0.1432,-0.1328,-0.1281,-0.1177,-0.1067,-0.0973,-0.0918,-0.0815,-0.0742,-0.0706,-0.0735,-0.0743,-0.0751,-0.0754,-0.0702,-0.0707,-0.065,-0.065,-0.065,0,0,-0.1867,-0.1806,-0.1786,-0.1689,-0.1624,-0.1574,-0.1511,-0.1444,-0.1405,-0.1268,-0.1181,-0.1085,-0.0957,-0.0874,-0.0831,-0.0812,-0.0757,-0.075,-0.0758,-0.0756,-0.0702,-0.0708,-0.0713,-0.065,-0.065,-0.065,0,0,-0.1883,-0.1834,-0.1809,-0.1754,-0.1665,-0.16,-0.1594,-0.1475,-0.1429,-0.1331,-0.1236,-0.1152,-0.0996,-0.0918,-0.0858,-0.0848,-0.08,-0.0824,-0.089,-0.0841,-0.0846,-0.085,-0.0865,-0.0869,-0.0831,-0.0832,-0.0832,0,-0.1913,-0.1856,-0.1791,-0.1751,-0.1715,-0.1626,-0.1596,-0.1533,-0.1392,-0.1362,-0.1322,-0.1121,-0.102,-0.0938,-0.0931,-0.0871,-0.0851,-0.0872,-0.0857,-0.0859,-0.0861,-0.0874,-0.0876,-0.0838,-0.0838,-0.0837,-0.0836,0,-0.1898,-0.1859,-0.1843,-0.1771,-0.1731,-0.1685,-0.1609,-0.1567,-0.151,-0.1437,-0.1349,-0.1211,-0.1099,-0.1066,-0.0987,-0.0953,-0.0942,-0.0878,-0.0847,-0.0876,-0.0888,-0.0888,-0.0848,-0.0846,-0.0844,-0.0842,0,0,-0.1951,-0.1852,-0.1847,-0.1822,-0.1736,-0.1698,-0.167,-0.1604,-0.1585,-0.1477,-0.1442,-0.1299,-0.1242,-0.1171,-0.1082,-0.1036,-0.1047,-0.0972,-0.0966,-0.1015,-0.0988,-0.0951,-0.0947,-0.098,-0.098,-0.0979,-0.1013,0,-0.1958,-0.1897,-0.185,-0.1814,-0.1783,-0.1728,-0.1712,-0.1654,-0.159,-0.1533,-0.1436,-0.1348,-0.128,-0.1227,-0.1181,-0.1051,-0.1044,-0.1046,-0.0925,-0.0923,-0.0908,-0.0943,-0.085,-0.0867,-0.1012,-0.1012,-0.1012,0,-0.1955,-0.1914,-0.1878,-0.1836,-0.1823,-0.1802,-0.1773,-0.174,-0.1667,-0.1619,-0.1547,-0.1452,-0.137,-0.1302,-0.1176,-0.118,-0.111,-0.1031,-0.1029,-0.0936,-0.0883,-0.0845,-0.0861,-0.0621,-0.1012,-0.1012,-0.1012,0,-0.2003,-0.194,-0.1915,-0.1892,-0.1833,-0.1837,-0.1816,-0.1766,-0.1748,-0.1669,-0.1633,-0.1532,-0.1457,-0.136,-0.1213,-0.1189,-0.1085,-0.1026,-0.0951,-0.0951,-0.0816,-0.0803,-0.0601,-0.0968,-0.0968,-0.0968,-0.0968,0,-0.2014,-0.1996,-0.1936,-0.1915,-0.1927,-0.188,-0.1886,-0.1856,-0.1808,-0.178,-0.1679,-0.163,-0.1458,-0.1369,-0.126,-0.1119,-0.1132,-0.0979,-0.0945,-0.0869,-0.086,-0.0597,-0.0509,-0.0969,-0.0969,-0.0968,-0.0968,0,-0.205,-0.2006,-0.1985,-0.1942,-0.1942,-0.1953,-0.1939,-0.1938,-0.1884,-0.1847,-0.1823,-0.1696,-0.1583,-0.1451,-0.128,-0.1163,-0.0914,-0.0995,-0.0953,-0.0912,-0.0596,-0.0522,-0.0372,-0.0284,-0.0916,-0.0916,-0.0915,0,-0.2048,-0.203,-0.2011,-0.2034,-0.2016,-0.2023,-0.2038,-0.1991,-0.1981,-0.1882,-0.1869,-0.1749,-0.1673,-0.1451,-0.1228,-0.1074,-0.0899,-0.0865,-0.078,-0.0575,-0.0467,-0.0444,-0.038,-0.0691,-0.0688,-0.0686,-0.0684,0,-0.2052,-0.2048,-0.2036,-0.2085,-0.2111,-0.2129,-0.2131,-0.2134,-0.2068,-0.2026,-0.1953,-0.1885,-0.1647,-0.1409,-0.1177,-0.103,-0.0679,-0.0817,-0.0579,-0.0259,-0.0243,-0.0143,-0.0725,-0.0666,-0.0668,-0.0669,-0.067,-0.0671,-0.2073,-0.2082,-0.2091,-0.2148,-0.2185,-0.223,-0.2254,-0.2235,-0.2224,-0.2159,-0.2066,-0.1951,-0.1536,-0.1191,-0.0996,-0.0465,-0.0569,-0.0273,-0.0209,-0.0213,-0.0079,-0.066,-0.0564,-0.0565,-0.0567,-0.0567,-0.0568,0,-0.2121,-0.213,-0.2161,-0.2234,-0.2299,-0.2299,-0.2318,-0.233,-0.2326,-0.2224,-0.2165,-0.1763,-0.1328,-0.0864,-0.0174,0.0136,0.02,0.0307,0.0416,0.0446,-0.0019,0.0049,0.0256,0.0255,0.0255,0.0255,0.0255,0.0254,-0.2157,-0.2195,-0.2206,-0.233,-0.2381,-0.2463,-0.2482,-0.2462,-0.2395,-0.2209,-0.1991,-0.181,-0.1031,-0.0025,0.0704,0.079,0.1001,0.0971,0.1034,0.0809,0.0762,0.0717,0.0809,0.1171,0.1172,0.151,0.1514,0.1517]}],[{"header":{"parameterUnit":"m.s-1","parameterCategory":2,"la1":30.2991,"la2":30.254,"lo1":-89.0895,"lo2":-89.0444,"dy":0.0017,"dx":0.0017,"nx":28,"ny":28,"refTime":"2025-12-06T09:00:00:Z","depth":"2","parameterNumber":2,"parameterNumberName":"U-component_of_CURRENTS"},"data":[0,0,0,0,0,0,0,0,0,0,0,0,0,0,0,0,0,0,0,0,0,0,0,0,0,0,0,0,0,0,0,0,0,0,0,0,0,0,0,0,0,0,0,0,0,0,0,0,0,0,0,0,0,0,0,0,0,0,-0.1979,-0.198,0,-0.2054,-0.2055,-0.2056,-0.2076,-0.2076,-0.2076,-0.2076,-0.2156,-0.2158,-0.216,0,0,0,0,0,0,0,0,0,0,0,0,0,-0.1905,-0.1905,-0.1978,-0.198,-0.1981,-0.2054,-0.2055,-0.2056,-0.2076,-0.2076,-0.2076,-0.2076,-0.2155,-0.2158,-0.216,0,0,0,0,0,0,0,0,0,0,0,0,0,-0.1951,-0.1906,-0.1978,-0.2002,-0.2005,-0.2054,-0.2055,-0.2056,-0.2076,-0.2076,-0.2076,-0.2076,-0.2154,-0.2157,-0.2161,-0.2186,0,0,-0.2171,-0.2173,0,0,0,0,0,0,0,0,-0.1948,-0.1953,-0.1998,-0.2001,-0.2004,-0.2058,-0.2059,-0.2101,-0.2076,-0.2046,-0.2076,-0.2076,-0.2126,-0.2131,-0.2142,-0.219,-0.2193,-0.2171,-0.2173,-0.2175,-0.2176,0,0,0,0,0,0,0,-0.1945,-0.1951,-0.2005,-0.1999,-0.2003,-0.2028,-0.2033,-0.2067,-0.2084,-0.2049,-0.2051,-0.2065,-0.2127,-0.2138,-0.2144,-0.2194,-0.2171,-0.2174,-0.2176,-0.2178,-0.2285,-0.2285,0,0,0,0,0,0,-0.194,-0.1947,-0.2003,-0.2008,-0.1979,-0.2029,-0.2035,-0.2039,-0.2084,-0.2091,-0.2065,-0.2066,-0.2133,-0.214,-0.2147,-0.2213,-0.2175,-0.2178,-0.218,-0.2284,-0.2285,-0.2286,0,0,0,0,0,0,-0.1938,-0.1943,-0.2,-0.1982,-0.1992,-0.2031,-0.2034,-0.204,-0.2059,-0.2096,-0.2103,-0.2079,-0.2133,-0.2142,-0.218,-0.2215,-0.218,-0.2183,-0.2283,-0.2284,-0.2285,-0.2325,0,0,0,0,0,0,-0.1935,-0.1942,-0.1931,-0.1982,-0.1993,-0.2043,-0.2035,-0.2042,-0.2069,-0.2071,-0.2111,-0.2117,-0.2133,-0.2175,-0.2183,-0.2219,-0.2185,-0.2282,-0.2283,-0.2285,-0.2323,-0.2327,-0.2331,0,0,0,0,0,-0.1932,-0.1933,-0.1929,-0.1936,-0.1979,-0.2044,-0.2052,-0.2077,-0.207,-0.209,-0.2106,-0.2116,-0.219,-0.2178,-0.2188,-0.2226,-0.2281,-0.2283,-0.2285,-0.2321,-0.2326,-0.2331,0,0,0,0,0,0,-0.189,-0.1936,-0.1934,-0.1945,-0.1993,-0.2049,-0.2062,-0.2082,-0.2109,-0.2105,-0.2128,-0.2137,-0.2185,-0.2194,-0.218,-0.2258,-0.2238,-0.2241,-0.2262,-0.2267,-0.2272,-0.2253,-0.2188,0,0,0,0,0,-0.1875,-0.1889,-0.1941,-0.195,-0.197,-0.2013,-0.2036,-0.2063,-0.2101,-0.2112,-0.2138,-0.2163,-0.22,-0.2222,-0.2251,-0.2296,-0.2281,-0.2325,-0.2329,-0.2333,-0.2323,-0.2325,-0.2328,-0.2292,-0.2292,-0.2292,0,0,-0.1866,-0.1888,-0.1897,-0.1942,-0.1972,-0.2014,-0.2026,-0.2074,-0.211,-0.2117,-0.2158,-0.2181,-0.2213,-0.2262,-0.2285,-0.2277,-0.2337,-0.2335,-0.2338,-0.2326,-0.2327,-0.2331,-0.2334,-0.2293,-0.2293,-0.2292,0,0,-0.1858,-0.1869,-0.1878,-0.1921,-0.1974,-0.2015,-0.2031,-0.2092,-0.2117,-0.2165,-0.2178,-0.2215,-0.2267,-0.2301,-0.2323,-0.2367,-0.2358,-0.2382,-0.2398,-0.24,-0.2403,-0.2405,-0.2394,-0.2395,-0.2387,-0.2388,-0.2388,0,-0.1832,-0.1855,-0.1895,-0.192,-0.1961,-0.2016,-0.2055,-0.2095,-0.216,-0.2192,-0.218,-0.2261,-0.2285,-0.2356,-0.2365,-0.238,-0.2367,-0.2379,-0.2405,-0.2407,-0.2409,-0.2397,-0.2397,-0.239,-0.2389,-0.2389,-0.2389,0,-0.184,-0.186,-0.1877,-0.1925,-0.1979,-0.2027,-0.2099,-0.2147,-0.218,-0.2221,-0.2288,-0.2314,-0.2361,-0.2383,-0.2385,-0.2428,-0.241,-0.2409,-0.2391,-0.2415,-0.2401,-0.2401,-0.2393,-0.2392,-0.2391,-0.2391,0,0,-0.1775,-0.1861,-0.1864,-0.1902,-0.1991,-0.2047,-0.2115,-0.2205,-0.2252,-0.2299,-0.235,-0.2408,-0.2416,-0.2438,-0.2457,-0.2458,-0.2459,-0.2432,-0.2431,-0.2418,-0.2448,-0.2411,-0.2406,-0.2458,-0.2459,-0.2459,-0.2435,0,-0.1764,-0.1809,-0.1868,-0.1945,-0.1988,-0.208,-0.2148,-0.2238,-0.2296,-0.2354,-0.2398,-0.2442,-0.2442,-0.2458,-0.2464,-0.2455,-0.2458,-0.2464,-0.2429,-0.2427,-0.2388,-0.2405,-0.209,-0.204,-0.2435,-0.2435,-0.2435,0,-0.1743,-0.1788,-0.1838,-0.1975,-0.2003,-0.2054,-0.2189,-0.2259,-0.2359,-0.2401,-0.2453,-0.2477,-0.2506,-0.2483,-0.2484,-0.2483,-0.2465,-0.2452,-0.2451,-0.2397,-0.2389,-0.2079,-0.2024,-0.2434,-0.2434,-0.2434,-0.2434,0,-0.1675,-0.178,-0.182,-0.1859,-0.2002,-0.2052,-0.2138,-0.2257,-0.2332,-0.2411,-0.2444,-0.2496,-0.2491,-0.2492,-0.2475,-0.247,-0.2454,-0.245,-0.2407,-0.2404,-0.2118,-0.209,-0.2446,-0.2446,-0.2446,-0.2446,-0.2446,0,-0.1635,-0.1682,-0.1787,-0.1806,-0.1909,-0.2012,-0.2112,-0.2208,-0.2311,-0.2385,-0.2442,-0.2475,-0.2483,-0.2487,-0.2479,-0.2438,-0.2462,-0.2403,-0.2396,-0.2125,-0.2099,-0.2427,-0.2425,-0.2445,-0.2446,-0.2446,-0.2446,0,-0.1555,-0.1607,-0.1685,-0.1816,-0.1867,-0.1937,-0.211,-0.2186,-0.2268,-0.2351,-0.237,-0.2438,-0.2429,-0.2452,-0.2436,-0.242,-0.2407,-0.2394,-0.2076,-0.2033,-0.2351,-0.2352,-0.2326,-0.2325,-0.2323,-0.2322,-0.2321,0,-0.1519,-0.1529,-0.1671,-0.1738,-0.1796,-0.1914,-0.2007,-0.2147,-0.222,-0.2327,-0.2353,-0.2371,-0.2374,-0.2351,-0.2285,-0.2256,-0.2372,-0.1996,-0.1944,-0.2343,-0.2339,-0.2342,-0.2344,-0.157,-0.1563,-0.1557,-0.1553,0,-0.1472,-0.1504,-0.1574,-0.1692,-0.1789,-0.1924,-0.2043,-0.2095,-0.2234,-0.2256,-0.2294,-0.2291,-0.2231,-0.2051,-0.2019,-0.1952,-0.1976,-0.1884,-0.2349,-0.1681,-0.1636,-0.1632,-0.1657,-0.1502,-0.1507,-0.1511,-0.1513,-0.1516,-0.1448,-0.1487,-0.1561,-0.1678,-0.1797,-0.1911,-0.1968,-0.2054,-0.2111,-0.2114,-0.2171,-0.2063,-0.1966,-0.1771,-0.1658,-0.1536,-0.1707,-0.1587,-0.1601,-0.1621,-0.1569,-0.1529,-0.1362,-0.1366,-0.137,-0.1373,-0.1376,0,-0.1437,-0.1473,-0.1565,-0.1694,-0.1786,-0.1864,-0.1984,-0.193,-0.1913,-0.1967,-0.1929,-0.1619,-0.1443,-0.1387,-0.1115,-0.1072,-0.0993,-0.1001,-0.0887,-0.0934,-0.0978,-0.0892,-0.0506,-0.0505,-0.0503,-0.0502,0,0,-0.1436,-0.1484,-0.1518,-0.1639,-0.1724,-0.1783,-0.182,-0.1674,-0.1656,-0.1559,-0.1505,-0.1527,-0.1443,-0.1086,-0.0906,-0.0712,-0.0845,-0.0623,-0.1299,-0.1222,-0.1266,-0.1262,-0.1178,0,0,0,0,0]},{"header":{"parameterUnit":"m.s-1","parameterCategory":2,"la1":30.2991,"la2":30.254,"lo1":-89.0895,"lo2":-89.0444,"dy":0.0017,"dx":0.0017,"nx":28,"ny":28,"refTime":"2025-12-06T09:00:00:Z","depth":"2","parameterNumber":3,"parameterNumberName":"V-component_of_CURRENTS"},"data":[0,0,0,0,0,0,0,0,0,0,0,0,0,0,0,0,0,0,0,0,0,0,0,0,0,0,0,0,0,0,0,0,0,0,0,0,0,0,0,0,0,0,0,0,0,0,0,0,0,0,0,0,0,0,0,0,0,0,0.0455,0.0455,0,0.048,0.048,0.0481,0.0496,0.0496,0.0496,0.0496,0.0529,0.053,0.0531,0,0,0,0,0,0,0,0,0,0,0,0,0,0.0449,0.0449,0.0455,0.0455,0.0455,0.048,0.048,0.0481,0.0496,0.0496,0.0496,0.0496,0.0529,0.053,0.0531,0,0,0,0,0,0,0,0,0,0,0,0,0,0.0461,0.0449,0.0455,0.0466,0.0467,0.048,0.048,0.0481,0.0496,0.0496,0.0496,0.0496,0.0528,0.053,0.0531,0.0538,0,0,0.0535,0.0535,0,0,0,0,0,0,0,0,0.046,0.0461,0.0464,0.0465,0.0466,0.0484,0.049,0.05,0.0496,0.0486,0.0496,0.0496,0.0514,0.0517,0.0522,0.0539,0.0541,0.0535,0.0536,0.0536,0.0536,0,0,0,0,0,0,0,0.0459,0.046,0.0465,0.0464,0.0465,0.0479,0.0481,0.0492,0.05,0.0487,0.0488,0.049,0.0515,0.0521,0.0523,0.0541,0.0535,0.0536,0.0537,0.0537,0.0506,0.0505,0,0,0,0,0,0,0.0453,0.0459,0.0464,0.0466,0.0463,0.0479,0.0481,0.0479,0.05,0.0503,0.0489,0.049,0.0519,0.0522,0.0524,0.0487,0.0536,0.0537,0.0538,0.0508,0.0506,0.0504,0,0,0,0,0,0,0.0453,0.0454,0.0463,0.0463,0.0465,0.0479,0.0477,0.048,0.0465,0.0502,0.0505,0.0469,0.0519,0.0523,0.0506,0.049,0.0538,0.0539,0.051,0.0507,0.0505,0.0441,0,0,0,0,0,0,0.0453,0.0453,0.0438,0.0463,0.0465,0.0442,0.0477,0.048,0.0467,0.0467,0.0486,0.0491,0.0519,0.0503,0.0507,0.0492,0.054,0.0512,0.0509,0.0506,0.0445,0.0437,0.043,0,0,0,0,0,0.0453,0.0431,0.0437,0.0437,0.0447,0.044,0.0441,0.0453,0.0465,0.0443,0.0457,0.0489,0.0488,0.0503,0.0508,0.0493,0.0513,0.051,0.0506,0.0449,0.0439,0.043,0,0,0,0,0,0,0.0436,0.0431,0.0438,0.042,0.0417,0.0442,0.042,0.0436,0.0431,0.0427,0.0468,0.0472,0.0454,0.0474,0.049,0.0473,0.0506,0.0503,0.0461,0.0452,0.0444,0.0431,0.0541,0,0,0,0,0,0.0422,0.0394,0.0404,0.0388,0.0377,0.0395,0.039,0.0398,0.0405,0.0403,0.0416,0.0431,0.0447,0.0447,0.0457,0.0444,0.0479,0.0437,0.0429,0.0422,0.0412,0.0506,0.0507,0.0493,0.0493,0.0493,0,0,0.0419,0.0407,0.0397,0.038,0.0377,0.035,0.039,0.0369,0.0352,0.0407,0.0374,0.0401,0.0435,0.0424,0.0418,0.0436,0.0426,0.0418,0.0412,0.0406,0.0503,0.0505,0.0507,0.049,0.0491,0.0491,0,0,0.0383,0.0376,0.0332,0.0311,0.0288,0.0302,0.0288,0.029,0.0289,0.0269,0.031,0.0329,0.0328,0.0366,0.0385,0.0339,0.0384,0.0328,0.0281,0.0372,0.0375,0.0378,0.0352,0.0354,0.0324,0.0324,0.0324,0,0.0369,0.0322,0.0321,0.0265,0.0242,0.0273,0.0225,0.0231,0.023,0.0232,0.0241,0.0284,0.0312,0.0339,0.0313,0.0327,0.0341,0.0318,0.0365,0.037,0.0375,0.0348,0.0351,0.0321,0.0321,0.0321,0.0322,0,0.0309,0.0251,0.0219,0.016,0.014,0.01,0.0108,0.0093,0.0105,0.0129,0.0143,0.0196,0.0226,0.0239,0.0256,0.0292,0.0273,0.035,0.0397,0.0373,0.0344,0.0348,0.0316,0.0317,0.0318,0.0319,0,0,0.0301,0.0194,0.0176,0.0114,0.0073,0.0048,0.0022,0.0014,0.0013,0.0032,0.0053,0.0083,0.0127,0.015,0.0198,0.0266,0.0287,0.0298,0.0304,0.028,0.0394,0.0448,0.0458,0.0382,0.0384,0.0386,0.0335,0,0.024,0.0115,0.0091,-0.0021,-0.0091,-0.0083,-0.0106,-0.0102,-0.0072,-0.0043,0.0042,0.0068,0.0092,0.0112,0.0183,0.0287,0.0305,0.0287,0.0412,0.0413,0.0477,0.047,0.0453,0.0416,0.0339,0.034,0.0341,0,0.0185,0.009,-0.0024,-0.0139,-0.0164,-0.0204,-0.0226,-0.024,-0.0175,-0.0151,-0.0086,-0.0016,0.0058,0.011,0.024,0.0224,0.027,0.0346,0.0349,0.0433,0.048,0.0441,0.0427,0.0349,0.0348,0.0347,0.0347,0,0.0172,0.0012,-0.0082,-0.0127,-0.0231,-0.027,-0.0299,-0.0272,-0.0277,-0.0206,-0.0177,-0.0071,-0.0011,0.0107,0.0206,0.0231,0.0357,0.0434,0.05,0.0499,0.0528,0.0529,0.0506,0.0506,0.0506,0.0506,0.0506,0,0.0125,0.0035,-0.011,-0.017,-0.0295,-0.0326,-0.0383,-0.0391,-0.0346,-0.0334,-0.0236,-0.0183,0.0001,0.0094,0.019,0.0337,0.0335,0.0477,0.0519,0.0494,0.0493,0.0491,0.049,0.0504,0.0505,0.0505,0.0505,0,0.014,0.0053,-0.01,-0.0254,-0.0308,-0.0392,-0.0475,-0.0493,-0.045,-0.0415,-0.04,-0.0266,-0.0148,-0.0013,0.0173,0.0311,0.0453,0.0481,0.0375,0.041,0.052,0.0515,0.0589,0.0592,0.0593,0.0595,0.0596,0,0.0142,0.0071,-0.016,-0.0276,-0.0358,-0.0478,-0.0545,-0.0554,-0.055,-0.0463,-0.0435,-0.0328,-0.024,0.0019,0.0252,0.0413,0.0408,0.0521,0.0618,0.0509,0.0542,0.0534,0.0528,0.0568,0.0569,0.057,0.057,0,0.012,0.0044,-0.0095,-0.0337,-0.0474,-0.0595,-0.0674,-0.0679,-0.0645,-0.0595,-0.0511,-0.0434,-0.0195,0.0044,0.0275,0.0392,0.052,0.0549,0.0495,0.0579,0.0496,0.0525,0.0518,0.0577,0.0576,0.0576,0.0576,0.0575,0.0085,-0.0019,-0.0213,-0.0443,-0.0593,-0.0701,-0.0761,-0.0775,-0.0765,-0.0692,-0.0591,-0.0437,-0.0188,0.0183,0.0338,0.0533,0.0574,0.0669,0.0664,0.0658,0.0696,0.0625,0.0727,0.0727,0.0728,0.0728,0.0728,0,0.0005,-0.0115,-0.0314,-0.0579,-0.0736,-0.0792,-0.0851,-0.0841,-0.0821,-0.0746,-0.0676,-0.0363,-0.0092,0.0136,0.0471,0.0681,0.0648,0.0692,0.0623,0.0618,0.0613,0.0645,0.0664,0.0664,0.0663,0.0663,0,0,-0.0069,-0.0247,-0.036,-0.0674,-0.0829,-0.0969,-0.0996,-0.0928,-0.0852,-0.0767,-0.0635,-0.0464,-0.0082,0.0136,0.0357,0.0511,0.0492,0.0511,0.0554,0.0438,0.0429,0.0609,0.0656,0,0,0,0,0]}],[{"header":{"parameterUnit":"m.s-1","parameterCategory":2,"la1":30.2991,"la2":30.254,"lo1":-89.0895,"lo2":-89.0444,"dy":0.0017,"dx":0.0017,"nx":28,"ny":28,"refTime":"2025-12-06T09:00:00:Z","depth":"4","parameterNumber":2,"parameterNumberName":"U-component_of_CURRENTS"},"data":[0,0,0,0,0,0,0,0,0,0,0,0,0,0,0,0,0,0,0,0,0,0,0,0,0,0,0,0,0,0,0,0,0,0,0,0,0,0,0,0,0,0,0,0,0,0,0,0,0,0,0,0,0,0,0,0,0,0,-0.0824,-0.0825,0,-0.0908,-0.0909,-0.091,-0.0958,-0.0959,-0.0959,-0.0959,-0.1025,-0.1027,-0.1028,0,0,0,0,0,0,0,0,0,0,0,0,0,-0.0766,-0.0766,-0.0824,-0.0825,-0.0826,-0.0908,-0.0909,-0.091,-0.0958,-0.0959,-0.0959,-0.0959,-0.1025,-0.1026,-0.1028,0,0,0,0,0,0,0,0,0,0,0,0,0,-0.0814,-0.0766,-0.0824,-0.086,-0.0864,-0.0908,-0.0909,-0.0911,-0.0958,-0.0959,-0.0959,-0.0959,-0.1024,-0.1026,-0.1029,-0.1037,0,0,-0.1036,-0.1037,0,0,0,0,0,0,0,0,-0.0811,-0.0816,-0.0854,-0.0858,-0.0862,-0.0923,-0.0913,-0.0952,-0.0958,-0.0922,-0.0959,-0.0959,-0.0989,-0.0995,-0.101,-0.104,-0.1043,-0.1036,-0.1037,-0.1038,-0.1039,0,0,0,0,0,0,0,-0.0808,-0.0813,-0.0857,-0.0855,-0.086,-0.0893,-0.09,-0.0921,-0.0953,-0.0926,-0.0929,-0.0939,-0.0992,-0.1007,-0.1012,-0.1044,-0.1036,-0.1038,-0.104,-0.104,-0.117,-0.1172,0,0,0,0,0,0,-0.0794,-0.081,-0.0855,-0.086,-0.0837,-0.0894,-0.0901,-0.0903,-0.0953,-0.0961,-0.0939,-0.0941,-0.1003,-0.1009,-0.1014,-0.1099,-0.1038,-0.1041,-0.1042,-0.1168,-0.117,-0.1172,0,0,0,0,0,0,-0.0792,-0.0797,-0.0851,-0.0837,-0.0847,-0.0894,-0.0896,-0.0905,-0.0936,-0.0963,-0.0971,-0.0963,-0.1004,-0.1011,-0.1068,-0.1099,-0.1042,-0.1044,-0.1165,-0.1168,-0.1171,-0.1222,0,0,0,0,0,0,-0.079,-0.0796,-0.0798,-0.0836,-0.0847,-0.0887,-0.0896,-0.0906,-0.0941,-0.0945,-0.0986,-0.0992,-0.1004,-0.1065,-0.107,-0.1101,-0.1046,-0.1163,-0.1167,-0.117,-0.1218,-0.1227,-0.1234,0,0,0,0,0,-0.0788,-0.0789,-0.0797,-0.0803,-0.0846,-0.0888,-0.0897,-0.0931,-0.0942,-0.096,-0.1003,-0.0992,-0.1092,-0.1069,-0.1075,-0.1107,-0.1161,-0.1166,-0.117,-0.1215,-0.1225,-0.1234,0,0,0,0,0,0,-0.0767,-0.0796,-0.0805,-0.0815,-0.0852,-0.0896,-0.0917,-0.0939,-0.0987,-0.0993,-0.1019,-0.1029,-0.1089,-0.1094,-0.1067,-0.1157,-0.1124,-0.113,-0.1155,-0.1165,-0.1173,-0.1169,-0.1048,0,0,0,0,0,-0.0761,-0.0768,-0.0806,-0.0816,-0.0836,-0.0878,-0.0901,-0.0924,-0.0968,-0.0989,-0.1027,-0.1067,-0.111,-0.1135,-0.1167,-0.1215,-0.1196,-0.124,-0.1248,-0.1255,-0.1258,-0.1246,-0.1252,-0.1187,-0.1187,-0.1187,0,0,-0.0755,-0.0772,-0.0776,-0.0812,-0.0844,-0.0879,-0.0893,-0.093,-0.0969,-0.0987,-0.1059,-0.1095,-0.113,-0.1192,-0.1218,-0.1201,-0.1269,-0.1261,-0.1266,-0.1265,-0.1251,-0.1257,-0.1262,-0.119,-0.119,-0.1189,0,0,-0.0746,-0.0764,-0.0769,-0.0804,-0.0849,-0.0884,-0.0897,-0.0955,-0.0991,-0.1061,-0.1088,-0.1143,-0.1213,-0.1245,-0.1269,-0.1337,-0.1309,-0.1354,-0.1394,-0.1383,-0.1387,-0.1391,-0.1388,-0.139,-0.136,-0.136,-0.136,0,-0.0739,-0.0746,-0.078,-0.0804,-0.0837,-0.0888,-0.0916,-0.0964,-0.1037,-0.1074,-0.109,-0.1205,-0.1236,-0.1302,-0.1346,-0.1353,-0.1347,-0.1352,-0.139,-0.1394,-0.1396,-0.1392,-0.1394,-0.1363,-0.1363,-0.1362,-0.1362,0,-0.0737,-0.0752,-0.0765,-0.0811,-0.0857,-0.0887,-0.0959,-0.1015,-0.1071,-0.1118,-0.1204,-0.1258,-0.1315,-0.135,-0.1381,-0.143,-0.142,-0.1396,-0.1358,-0.1405,-0.1398,-0.14,-0.1367,-0.1366,-0.1365,-0.1365,0,0,-0.07,-0.0749,-0.0756,-0.0771,-0.0861,-0.0891,-0.0979,-0.1058,-0.1106,-0.119,-0.1252,-0.1352,-0.1372,-0.1401,-0.1433,-0.1458,-0.149,-0.1454,-0.1452,-0.1438,-0.1478,-0.1364,-0.1355,-0.1473,-0.1473,-0.1474,-0.1469,0,-0.0688,-0.0707,-0.0756,-0.0799,-0.0819,-0.0911,-0.0979,-0.1064,-0.1151,-0.1226,-0.1293,-0.1363,-0.139,-0.1428,-0.1451,-0.1495,-0.1496,-0.1494,-0.1446,-0.1445,-0.1326,-0.1353,-0.1475,-0.1469,-0.147,-0.147,-0.147,0,-0.0677,-0.0685,-0.0713,-0.0774,-0.0796,-0.085,-0.097,-0.1044,-0.1171,-0.1225,-0.1306,-0.1362,-0.1446,-0.1438,-0.1494,-0.1497,-0.1487,-0.1505,-0.1503,-0.1377,-0.1333,-0.1411,-0.1472,-0.1472,-0.1472,-0.1472,-0.1472,0,-0.0612,-0.0663,-0.0676,-0.0701,-0.0784,-0.0838,-0.0917,-0.1051,-0.1112,-0.1241,-0.1276,-0.137,-0.1413,-0.1438,-0.1488,-0.1498,-0.1523,-0.1517,-0.1393,-0.1385,-0.1465,-0.1461,-0.1502,-0.1502,-0.1502,-0.1502,-0.1502,0,-0.0581,-0.0595,-0.0647,-0.0648,-0.068,-0.0793,-0.0871,-0.0953,-0.1083,-0.1137,-0.1261,-0.1288,-0.1416,-0.1454,-0.1482,-0.1442,-0.1494,-0.1399,-0.1371,-0.1491,-0.149,-0.1466,-0.1462,-0.1502,-0.1502,-0.1502,-0.1502,0,-0.0536,-0.0557,-0.056,-0.0622,-0.0643,-0.0688,-0.0823,-0.088,-0.1006,-0.1083,-0.1121,-0.1245,-0.1297,-0.1382,-0.1437,-0.1404,-0.1401,-0.1352,-0.1487,-0.1466,-0.1279,-0.1278,-0.1232,-0.1228,-0.1225,-0.1222,-0.1219,0,-0.0513,-0.0506,-0.0516,-0.0509,-0.0547,-0.0627,-0.0673,-0.0819,-0.0881,-0.1029,-0.1034,-0.1137,-0.1202,-0.1195,-0.1283,-0.1308,-0.1282,-0.1274,-0.1279,-0.1272,-0.1249,-0.1254,-0.1258,-0.1213,-0.1213,-0.1212,-0.1211,0,-0.047,-0.0475,-0.0475,-0.0439,-0.0464,-0.0495,-0.0584,-0.0615,-0.0785,-0.0874,-0.094,-0.1006,-0.1041,-0.112,-0.1138,-0.115,-0.1299,-0.1237,-0.1245,-0.125,-0.1248,-0.1231,-0.1239,-0.1198,-0.12,-0.1201,-0.1202,0,-0.0443,-0.0428,-0.0405,-0.0382,-0.0382,-0.0382,-0.0446,-0.0526,-0.0602,-0.0785,-0.0789,-0.0904,-0.1014,-0.103,-0.1045,-0.1061,-0.1053,-0.1038,-0.1056,-0.1071,-0.1023,-0.0998,-0.0841,0,0,0,0,0,-0.0417,-0.0389,-0.0349,-0.0295,-0.029,-0.029,-0.0381,-0.0464,-0.0608,-0.0622,-0.0724,-0.0763,-0.0833,-0.0885,-0.0871,-0.0954,-0.1043,-0.0932,-0.1031,-0.1131,-0.1145,-0.1105,0,0,0,0,0,0,-0.0389,-0.0371,-0.0328,-0.0229,-0.0183,-0.0177,-0.024,-0.034,-0.0375,-0.0526,-0.0566,-0.0673,-0.0744,-0.0808,-0.0832,-0.0849,-0.0891,-0.1002,-0.0999,-0.1122,-0.1135,-0.1147,-0.1111,0,0,0,0,0]},{"header":{"parameterUnit":"m.s-1","parameterCategory":2,"la1":30.2991,"la2":30.254,"lo1":-89.0895,"lo2":-89.0444,"dy":0.0017,"dx":0.0017,"nx":28,"ny":28,"refTime":"2025-12-06T09:00:00:Z","depth":"4","parameterNumber":3,"parameterNumberName":"V-component_of_CURRENTS"},"data":[0,0,0,0,0,0,0,0,0,0,0,0,0,0,0,0,0,0,0,0,0,0,0,0,0,0,0,0,0,0,0,0,0,0,0,0,0,0,0,0,0,0,0,0,0,0,0,0,0,0,0,0,0,0,0,0,0,0,-0.0079,-0.0079,0,-0.0083,-0.0083,-0.0083,-0.0031,-0.003,-0.0028,-0.0027,0.0038,0.0038,0.0039,0,0,0,0,0,0,0,0,0,0,0,0,0,0.0019,0.0017,-0.0079,-0.0079,-0.008,-0.0083,-0.0083,-0.0083,-0.0031,-0.003,-0.0028,-0.0027,0.0038,0.0038,0.0039,0,0,0,0,0,0,0,0,0,0,0,0,0,-0.0007,0.0016,-0.0079,-0.0055,-0.0053,-0.0083,-0.0083,-0.0083,-0.0032,-0.003,-0.0028,-0.0026,0.0037,0.0038,0.0039,0.0005,0,0,0.0041,0.0042,0,0,0,0,0,0,0,0,-0.0006,-0.0011,-0.0059,-0.0057,-0.0055,-0.0055,-0.0024,-0.005,-0.0032,-0.0039,-0.0027,-0.0025,0.0011,0.0014,0.0009,0.0008,0.001,0.0041,0.0042,0.0042,0.0042,0,0,0,0,0,0,0,-0.0004,-0.001,-0.008,-0.0059,-0.0057,-0.0028,-0.003,-0.0029,-0.0023,-0.0038,-0.0034,-0.0037,0.0013,0.0008,0.0011,0.0011,0.0041,0.0042,0.0042,0.0043,0.0024,0.0023,0,0,0,0,0,0,-0.0011,-0.0009,-0.0079,-0.008,-0.0026,-0.0032,-0.0034,-0.0056,-0.0024,-0.0018,-0.0039,-0.0035,0.0006,0.001,0.0014,0.0005,0.0042,0.0043,0.0043,0.0025,0.0024,0.0023,0,0,0,0,0,0,-0.0009,-0.0018,-0.0079,-0.0043,-0.0049,-0.0036,-0.0061,-0.0057,-0.0052,-0.0026,-0.0018,-0.0037,0.0008,0.0013,0.002,0.0007,0.0043,0.0044,0.0026,0.0025,0.0024,-0.0031,0,0,0,0,0,0,-0.0007,-0.0018,-0.0037,-0.0045,-0.0052,-0.0104,-0.0063,-0.0059,-0.0058,-0.0052,-0.0022,-0.0014,0.001,0.0019,0.0021,0.0009,0.0044,0.0028,0.0026,0.0024,-0.0028,-0.0035,-0.004,0,0,0,0,0,-0.0004,-0.0048,-0.0038,-0.0046,-0.0079,-0.0105,-0.0107,-0.0088,-0.006,-0.0072,-0.0042,-0.0015,0.001,0.0018,0.0021,0.0009,0.0028,0.0026,0.0024,-0.0026,-0.0033,-0.004,0,0,0,0,0,0,-0.0025,-0.0047,-0.0037,-0.0087,-0.0094,-0.0097,-0.0111,-0.0093,-0.0081,-0.0068,-0.003,-0.0022,-0.002,-0.0003,0.0006,-0.0002,0.0024,0.0022,-0.0015,-0.0022,-0.0027,-0.0026,0.0045,0,0,0,0,0,-0.0038,-0.0069,-0.008,-0.0119,-0.0125,-0.0115,-0.0121,-0.0109,-0.01,-0.0093,-0.0072,-0.0048,-0.0032,-0.0023,-0.0013,-0.0023,0.0034,-0.0028,-0.0034,-0.0039,-0.0036,0.0025,0.0025,0.0016,0.0016,0.0016,0,0,-0.0057,-0.0072,-0.009,-0.0123,-0.0126,-0.0152,-0.0114,-0.0132,-0.0143,-0.0089,-0.0098,-0.007,-0.004,-0.0045,-0.0042,-0.0028,-0.0002,-0.0041,-0.0046,-0.0041,0.0023,0.0024,0.0025,0.0015,0.0015,0.0015,0,0,-0.0104,-0.0125,-0.0156,-0.0173,-0.0183,-0.0181,-0.0186,-0.019,-0.0178,-0.0189,-0.0144,-0.0121,-0.0117,-0.0088,-0.0073,-0.0107,-0.0035,-0.0107,-0.0133,-0.0075,-0.0073,-0.007,0.0028,0.0039,-0.0109,-0.0109,-0.0109,0,-0.0119,-0.0169,-0.017,-0.0204,-0.0225,-0.0197,-0.0233,-0.0229,-0.0226,-0.0216,-0.02,-0.0162,-0.0136,-0.0116,-0.0124,-0.0118,-0.0058,-0.0109,-0.008,-0.0077,-0.0073,0.0026,0.004,-0.0112,-0.0111,-0.0111,-0.0111,0,-0.0178,-0.0223,-0.0249,-0.0281,-0.0303,-0.0335,-0.0331,-0.033,-0.031,-0.0298,-0.0277,-0.0236,-0.0211,-0.0198,-0.0171,-0.0139,-0.0093,-0.0093,-0.0059,-0.0075,0.0031,0.0046,-0.0116,-0.0115,-0.0114,-0.0113,0,0,-0.0201,-0.0274,-0.0283,-0.0315,-0.0348,-0.0373,-0.0388,-0.0394,-0.0391,-0.037,-0.0363,-0.0324,-0.0288,-0.0268,-0.0223,-0.0165,-0.0081,-0.0122,-0.0118,-0.0017,0.0087,0.0059,0.0074,-0.0074,-0.0072,-0.0071,0.0161,0,-0.0241,-0.032,-0.0348,-0.0425,-0.0466,-0.0462,-0.0486,-0.0482,-0.046,-0.0448,-0.038,-0.0364,-0.032,-0.03,-0.024,-0.0119,-0.0049,-0.0142,0.0081,0.0089,0.0072,0.0087,-0.0066,0.0173,0.0176,0.0179,0.0181,0,-0.0282,-0.0334,-0.0417,-0.0496,-0.0514,-0.0557,-0.0574,-0.0591,-0.0555,-0.0534,-0.049,-0.0439,-0.0347,-0.0321,-0.0111,-0.017,-0.0053,0.0047,0.0058,0.006,0.0087,0.0187,0.0209,0.0207,0.0205,0.0203,0.0201,0,-0.0281,-0.0383,-0.0451,-0.0483,-0.0561,-0.0593,-0.0624,-0.0616,-0.062,-0.0583,-0.0567,-0.0465,-0.04,-0.0249,-0.0053,-0.0075,0.0192,0.0184,0.0279,0.0282,0.0264,0.0259,0.0321,0.0321,0.0321,0.032,0.0319,0,-0.0311,-0.0368,-0.0464,-0.0506,-0.0583,-0.063,-0.0683,-0.0682,-0.0682,-0.067,-0.0617,-0.0565,-0.038,-0.0215,-0.0047,0.0175,0.0201,0.0289,0.0331,0.0238,0.0227,0.0278,0.0269,0.0329,0.0327,0.0325,0.0323,0,-0.0297,-0.0361,-0.0449,-0.0553,-0.0588,-0.0642,-0.0728,-0.0744,-0.0748,-0.0724,-0.0712,-0.0605,-0.0388,-0.0182,0.0095,0.0185,0.0397,0.0464,0.039,0.0422,0.0455,0.0441,0.0598,0.0599,0.06,0.06,0.0601,0,-0.0301,-0.0344,-0.0469,-0.0525,-0.0583,-0.067,-0.0712,-0.0759,-0.0764,-0.0729,-0.0699,-0.0535,-0.0428,-0.004,0.0143,0.0464,0.048,0.0579,0.0473,0.0454,0.048,0.0465,0.0451,0.0602,0.0602,0.0602,0.0602,0,-0.0302,-0.0343,-0.0408,-0.0514,-0.0591,-0.0666,-0.0731,-0.0741,-0.0757,-0.0767,-0.0651,-0.0501,-0.0269,-0.0021,0.022,0.0436,0.0503,0.0586,0.0585,0.0487,0.046,0.0482,0.0467,0.0604,0.0604,0.0604,0.0604,0,-0.0295,-0.0327,-0.0406,-0.0489,-0.0587,-0.0636,-0.0682,-0.0685,-0.0697,-0.0662,-0.0611,-0.0413,-0.0301,-0.0032,0.0197,0.0395,0.0419,0.044,0.0447,0.0447,0.0297,0.0234,0.0357,0,0,0,0,0,-0.0288,-0.0298,-0.0375,-0.0463,-0.0555,-0.06,-0.0675,-0.0707,-0.0723,-0.0629,-0.0625,-0.041,-0.0129,-0.0024,0.0181,0.02,0.045,0.0436,0.0478,0.0617,0.0614,0.0456,0,0,0,0,0,0,-0.0282,-0.0331,-0.0349,-0.0416,-0.0465,-0.0547,-0.0594,-0.0606,-0.0565,-0.0564,-0.04,-0.0375,-0.0079,-0.02,0.0196,0.0244,0.0285,0.0559,0.0561,0.0619,0.0616,0.0614,0.045,0,0,0,0,0]}]]